Location: Newark
(37.9128°N, 122.4756°W)
Time: 12:56:05
(UTC+00:00)

X-37B - Pass Details

Date: 14 March 2021
Orbit: 380 x 394 km, 45.0° (Epoch: 07 April)

Event Time Altitude Azimuth Distance (km) Brightness Sun altitude
Rises 04:09:14 0° 274° (W) 2,269 5.8 -23.0°
Reaches altitude 10° 04:11:29 10° 287° (WNW) 1,418 4.5 -23.4°
Enters shadow 04:13:48 26° 331° (NNW) 814 2.6 -23.9°
